Theta_e
304 304 304 305 304 304 304 304 304 304 305 305 306 307 308 309 310 312 314 312 311 314 314 313 312 310 311 312 312 312 311 313 320 322 323 322 317 320 324 329 332 336 344 349 349 348 349 351 353 354 355 355 353 355 358 358 355 353 357 351 345 346 344 352 357 350 350 353 355 353 354 354 353 353 348 347 346 345 346 346 345 345 346 346 349 352 352 352
305 305 305 305 305 305 305 305 305 305 305 305 305 306 306 308 309 311 313 313 311 310 311 311 311 310 311 312 311 311 310 316 324 325 321 318 316 319 323 330 332 337 347 351 350 350 350 348 350 352 351 351 352 353 357 358 355 354 354 348 350 354 351 357 358 354 355 354 353 353 353 352 352 352 348 350 347 345 347 347 347 346 347 348 349 351 351 351
305 305 305 305 306 306 306 306 306 305 305 305 306 306 306 307 308 310 312 314 313 310 310 310 309 310 311 311 311 311 316 323 328 324 320 317 316 319 323 329 332 336 347 352 350 351 350 348 349 349 347 349 350 351 356 358 355 354 351 348 352 354 354 357 358 357 356 355 355 351 350 351 351 348 348 350 347 346 347 346 347 348 348 347 347 350 351 351
306 306 306 306 306 306 306 307 306 307 306 307 306 306 306 306 308 309 311 313 314 312 312 312 312 312 312 312 313 315 321 329 327 324 321 316 318 320 322 328 330 335 345 351 350 351 350 350 350 348 346 346 348 351 355 356 355 354 352 353 354 352 353 357 359 358 355 356 355 351 351 350 350 349 347 349 349 348 347 345 346 347 348 347 346 348 350 351
307 307 307 306 307 307 307 307 307 308 307 308 307 307 307 307 308 309 311 312 314 314 313 315 316 315 315 316 318 321 326 329 324 331 324 316 320 322 323 328 332 337 346 349 349 350 350 349 348 346 344 344 346 350 353 355 357 356 354 357 357 352 354 358 359 360 357 356 354 353 354 352 352 351 348 349 351 349 344 343 344 345 347 346 346 347 349 350
307 307 307 307 307 307 307 307 308 308 308 308 308 308 308 308 307 308 311 311 314 314 313 315 317 317 319 321 322 324 328 325 325 334 326 317 318 320 324 330 335 340 346 349 349 349 348 346 345 344 342 341 343 346 350 353 357 358 357 357 358 355 357 360 360 360 357 356 356 356 355 351 353 353 350 349 349 347 343 343 344 345 347 347 348 348 347 347
307 307 307 308 308 308 308 308 308 308 309 309 309 309 309 308 308 308 310 312 313 314 314 314 317 319 320 324 325 323 326 322 325 330 325 318 316 317 323 331 336 340 345 348 347 346 344 343 342 340 340 340 342 344 348 354 356 358 358 358 360 358 360 360 358 359 356 357 358 356 354 353 354 354 352 349 347 346 343 343 345 346 349 349 348 346 345 347
307 307 307 308 308 308 308 308 309 309 309 309 309 309 310 309 309 309 310 311 313 314 315 313 316 319 320 326 329 324 321 320 324 327 322 317 315 316 327 334 336 339 344 346 345 342 339 340 338 337 339 338 340 343 348 355 354 355 359 360 361 360 360 357 355 357 356 357 357 355 356 356 356 354 352 350 346 344 344 345 346 347 348 347 346 345 345 347
307 307 307 308 308 308 308 309 309 309 310 310 310 310 311 310 309 309 309 311 312 314 316 314 316 319 321 327 329 320 322 320 322 323 318 316 315 322 332 336 336 337 340 341 341 339 337 336 334 334 336 334 338 343 347 353 350 351 358 360 361 362 359 356 357 359 357 357 356 356 358 356 354 353 352 350 346 344 345 346 346 346 346 346 346 345 346 346
308 308 308 308 308 308 309 309 309 310 310 310 310 310 311 311 310 310 309 311 311 313 315 314 316 319 324 329 325 319 324 324 326 322 319 321 323 331 337 334 334 335 335 336 337 337 334 334 332 332 334 332 338 346 349 351 349 350 355 357 360 362 361 358 358 359 357 357 356 356 358 356 354 354 353 348 345 345 345 347 347 347 347 345 345 345 348 348
308 308 308 308 309 309 309 309 309 310 310 311 311 311 312 311 311 312 311 311 311 312 315 315 316 320 326 328 322 323 324 326 332 327 324 331 332 338 339 334 333 332 332 333 333 335 334 334 334 332 334 330 335 347 350 349 351 352 354 358 359 359 360 358 359 359 357 357 356 356 358 357 355 353 353 348 345 345 346 347 347 347 347 345 345 345 348 349
308 308 308 308 308 309 309 310 310 310 310 311 311 312 312 311 312 314 312 310 310 312 314 315 316 320 327 327 321 324 323 325 332 329 327 333 336 337 337 334 332 330 330 331 331 333 333 334 333 331 332 329 333 346 348 348 352 353 353 357 359 361 362 360 361 359 357 360 358 356 352 353 357 354 351 347 345 346 346 348 347 347 347 345 346 345 347 350
308 308 308 308 309 309 309 309 310 311 311 311 312 312 312 314 316 316 313 310 310 312 313 316 317 321 327 326 323 324 323 327 330 330 329 329 332 332 333 333 331 329 328 329 331 331 330 332 331 329 330 329 333 342 346 349 351 353 355 353 354 357 360 363 363 359 360 361 362 357 341 344 358 355 352 349 345 346 347 348 347 346 347 345 345 346 347 349
309 309 309 309 309 309 310 310 310 311 311 312 312 312 316 319 319 316 313 309 311 313 315 316 319 325 328 324 324 323 322 328 329 331 331 328 328 329 331 331 329 328 326 327 329 328 329 330 329 329 329 329 335 343 347 348 347 352 353 350 345 337 343 364 363 359 364 360 363 359 337 339 359 357 353 350 345 348 347 348 347 345 347 345 345 346 346 348
309 309 309 309 309 310 310 310 311 311 311 312 311 314 320 320 316 314 311 310 313 314 315 318 321 328 329 322 327 325 322 328 330 333 331 327 327 328 330 329 328 327 325 326 327 328 330 329 329 330 330 330 335 344 346 344 346 349 339 333 334 327 336 366 364 358 365 360 362 359 338 341 360 358 354 351 347 350 348 347 348 346 347 345 345 346 344 347
309 309 309 310 310 310 310 310 311 311 312 312 312 316 321 318 315 313 312 313 315 315 319 326 326 327 326 323 330 328 325 327 329 332 329 327 327 327 329 329 328 326 324 325 326 327 329 329 330 329 331 333 337 341 338 333 336 344 334 322 326 325 329 352 361 362 364 361 362 358 345 346 357 356 353 351 348 349 348 348 348 347 347 346 345 345 345 346
309 309 309 310 310 310 310 311 311 311 312 312 313 319 321 317 315 315 315 316 318 319 324 330 328 327 325 323 327 326 326 327 327 329 327 325 325 326 329 327 326 326 325 325 324 326 327 328 329 328 329 332 337 337 328 322 322 330 331 324 327 328 323 332 352 364 362 359 361 359 354 350 354 356 352 351 349 349 349 348 348 348 347 347 346 345 345 346
309 309 310 309 310 310 310 311 311 312 313 312 314 321 321 318 317 318 320 321 324 325 326 328 327 327 324 322 323 323 326 327 327 328 326 324 323 326 327 325 325 324 323 324 325 327 328 329 330 330 329 329 334 333 324 321 322 322 324 322 323 326 326 325 337 357 361 359 359 357 356 354 354 355 352 350 349 350 350 349 348 349 348 348 347 345 346 346
309 309 310 310 310 311 310 311 311 312 313 312 316 323 322 320 321 323 324 325 327 328 328 328 326 325 322 322 323 323 327 328 327 327 326 325 324 326 328 326 324 323 323 325 328 329 329 330 329 327 328 327 332 332 328 329 328 326 325 325 322 320 325 329 335 349 356 356 358 355 352 353 353 354 355 351 350 350 350 350 349 349 349 349 347 346 347 346
310 310 310 311 311 311 311 312 312 313 313 311 318 326 326 325 328 328 326 324 326 325 326 328 326 325 322 322 323 325 327 327 327 328 327 326 327 328 329 328 326 326 327 327 328 328 328 329 327 326 327 328 330 330 332 332 330 331 329 327 325 321 323 334 343 348 352 352 353 354 352 352 352 353 355 353 351 351 349 350 350 349 350 348 347 347 347 347
310 310 311 312 312 313 312 312 312 313 313 310 317 327 327 324 325 325 325 324 325 325 324 325 325 325 324 323 323 325 326 325 327 329 327 327 328 329 328 328 328 327 328 327 327 327 326 325 326 328 328 328 328 327 329 330 330 330 328 323 323 323 325 338 346 346 354 352 346 354 355 351 353 352 352 354 353 352 350 350 349 349 350 348 347 348 347 347
310 311 312 312 314 314 313 313 314 313 313 313 317 323 320 320 320 319 321 321 323 325 323 323 324 324 325 325 325 324 324 325 326 327 327 327 328 328 328 328 328 328 327 327 325 324 323 323 326 328 327 326 326 326 327 328 330 328 326 322 319 323 326 337 351 352 354 352 347 356 353 346 352 352 351 354 353 353 351 349 350 349 350 348 347 348 347 347
310 311 312 313 315 315 315 314 314 313 313 316 320 320 319 319 317 318 320 321 323 324 323 323 323 323 323 323 324 324 324 325 325 325 327 328 327 328 328 328 328 328 328 327 326 321 318 322 327 327 325 326 325 325 326 325 327 326 325 319 316 324 322 324 346 361 358 355 353 359 350 342 349 352 353 354 353 355 354 351 351 350 350 349 347 347 347 347
311 311 312 314 315 317 317 314 314 314 314 317 319 318 318 317 317 319 321 322 323 323 323 323 323 322 322 323 324 323 323 325 325 326 327 327 327 327 327 328 327 327 328 328 327 323 321 323 325 326 324 325 324 324 325 323 323 325 326 322 318 324 322 321 343 360 358 357 360 356 335 328 339 347 349 354 354 355 356 355 353 351 350 349 347 347 347 346
312 311 312 313 315 318 317 315 317 317 315 318 319 318 317 316 317 319 322 322 322 322 322 321 322 322 322 323 323 322 323 324 325 326 327 327 327 327 327 327 326 327 327 327 326 324 325 324 323 325 324 324 324 324 325 323 319 320 325 326 323 324 323 328 345 347 334 334 354 352 322 317 331 337 343 355 358 358 357 358 355 353 353 350 349 348 347 346
312 311 313 312 314 317 319 320 320 315 316 319 320 317 314 315 317 319 322 321 318 320 320 320 321 321 322 322 322 322 322 324 326 326 328 328 327 328 327 326 327 326 326 326 326 324 325 325 324 324 324 324 324 323 325 325 318 315 321 325 325 325 322 327 337 331 318 322 350 355 323 315 323 328 342 355 358 360 359 357 355 354 354 351 350 349 347 347
312 312 312 312 313 315 319 322 318 315 318 319 318 315 314 315 317 319 321 316 314 320 321 319 320 320 321 322 322 322 320 323 325 325 326 328 328 327 326 326 325 324 326 326 321 322 325 325 324 324 324 324 323 321 324 326 318 315 323 325 324 324 322 327 331 324 320 326 343 352 333 318 316 326 350 357 351 357 359 359 358 355 354 352 350 349 348 347
312 313 312 313 313 312 314 317 317 319 319 317 315 315 315 315 318 322 319 313 315 321 322 319 319 320 321 322 322 322 322 324 325 324 326 327 327 326 325 326 325 323 326 323 316 320 326 325 324 325 324 322 322 323 325 324 320 321 328 327 327 329 327 332 329 321 325 323 320 332 334 320 314 325 350 357 347 348 353 358 359 356 355 353 350 349 347 347
313 314 313 313 314 314 313 313 316 320 318 315 314 314 315 316 320 323 317 314 319 321 321 320 319 319 321 322 322 322 324 324 324 324 326 327 326 325 324 324 324 323 324 323 320 322 324 323 324 324 323 323 323 325 324 323 323 327 331 331 332 333 331 333 328 321 324 318 311 321 327 318 313 318 332 343 339 340 347 350 354 356 356 355 352 349 348 347
315 316 314 313 315 316 315 313 315 317 316 314 313 314 316 320 321 318 314 316 320 320 319 319 320 320 321 322 321 322 324 324 324 323 325 326 325 324 324 324 324 325 324 323 322 323 323 323 324 323 323 324 324 324 323 322 325 328 330 332 329 331 333 331 329 323 319 315 314 319 323 320 315 315 322 335 338 339 344 346 348 354 356 357 354 349 348 347
317 317 315 313 314 315 317 320 317 314 315 314 314 317 319 322 321 314 314 318 318 320 320 320 320 321 321 321 321 322 323 323 323 324 325 325 325 324 324 323 323 322 321 321 320 321 322 321 323 323 322 324 323 323 322 322 325 326 329 328 321 322 326 322 322 323 316 315 318 322 328 325 316 317 326 337 342 343 344 345 347 349 353 357 356 351 349 348
318 318 316 315 314 314 318 320 316 313 314 314 317 322 320 320 317 313 316 318 316 319 321 321 321 322 322 321 321 322 323 324 323 325 325 325 325 325 323 322 322 317 313 315 317 318 321 321 322 322 323 324 323 321 321 322 326 326 326 322 314 314 318 316 316 318 315 316 321 327 333 326 318 322 333 339 342 343 345 345 346 348 350 355 356 353 352 349
319 318 317 316 317 317 318 319 315 313 315 316 320 323 319 317 315 315 318 317 315 318 321 321 321 322 322 320 321 322 322 323 324 324 325 325 325 325 323 324 324 319 314 314 314 312 314 320 322 321 322 323 323 320 316 318 323 323 321 316 312 312 314 315 314 315 315 315 322 333 334 322 317 326 339 343 344 345 346 347 348 350 351 353 354 352 351 350
319 317 316 319 322 322 321 321 318 315 316 319 321 321 319 315 316 318 320 319 320 320 321 322 322 322 322 321 321 322 322 323 324 324 324 325 323 322 323 324 323 323 320 316 313 311 310 313 319 321 321 322 325 323 320 321 323 323 325 321 314 311 312 313 312 312 314 315 322 333 328 316 315 329 344 347 347 348 348 350 353 354 355 355 354 352 350 350
318 317 318 322 324 323 322 321 319 316 317 321 321 320 317 314 316 318 320 322 322 322 321 322 322 321 321 322 322 323 321 321 323 324 324 324 322 322 324 324 323 324 322 315 314 314 310 311 320 323 322 324 324 324 325 323 320 323 327 322 315 315 315 312 311 313 313 312 317 323 321 318 324 337 347 347 346 350 351 352 353 352 355 356 354 353 352 350
319 318 321 325 325 322 320 319 317 316 319 322 320 319 317 318 319 320 321 323 322 322 322 320 320 319 317 319 322 322 322 322 324 323 322 324 324 323 324 325 324 324 322 318 316 316 309 312 322 323 322 325 323 324 326 321 318 321 320 315 318 324 320 312 311 314 313 310 314 317 315 319 325 331 342 349 347 348 349 349 349 349 353 354 354 354 352 351
318 320 324 327 323 318 316 315 316 317 321 322 320 320 322 322 321 321 322 322 320 322 321 317 317 317 314 315 319 322 322 322 323 321 319 322 322 323 325 326 325 324 324 321 319 320 314 312 321 324 321 323 323 323 325 324 323 320 315 317 323 325 322 316 312 313 313 312 314 314 312 315 318 323 336 347 347 346 347 348 347 348 351 354 354 355 354 353
317 321 325 325 319 318 317 316 318 321 320 321 322 323 325 323 321 321 322 321 320 322 321 317 317 319 317 315 317 322 323 319 321 320 318 319 320 322 326 325 324 325 325 323 320 323 319 311 316 324 322 322 323 322 320 322 325 322 319 323 322 315 313 314 312 312 313 314 314 314 314 315 316 319 328 337 340 344 348 349 348 347 349 352 353 355 356 354
319 324 326 324 320 318 318 319 323 322 318 320 322 324 324 323 322 321 320 320 320 320 321 319 319 320 319 318 319 323 322 319 321 320 318 319 319 322 325 324 324 325 324 325 323 323 323 313 312 321 323 321 321 319 315 316 322 323 323 325 322 317 314 314 314 312 312 314 315 315 316 316 319 326 330 334 341 344 347 349 350 348 348 350 352 355 356 356
322 325 327 324 321 319 319 322 324 320 317 320 322 323 322 322 321 321 320 320 320 320 321 321 321 320 321 322 321 323 323 321 322 321 319 321 320 321 324 324 324 325 323 325 324 323 325 318 311 318 322 318 316 318 317 318 320 319 317 317 318 318 318 317 317 314 313 314 315 318 317 315 324 338 341 340 343 344 346 349 349 348 349 351 352 354 357 357
322 325 327 323 321 320 322 324 322 318 319 320 321 320 320 321 321 321 321 321 321 321 320 321 321 321 321 321 321 322 324 323 323 322 322 323 321 320 324 324 324 325 323 324 324 323 323 320 313 313 314 313 316 322 324 322 323 321 317 316 316 317 316 313 314 315 315 314 315 318 317 317 327 342 346 347 348 347 347 347 346 349 353 355 355 356 357 357
323 326 325 321 320 322 323 324 322 321 321 321 320 319 320 323 322 321 322 322 322 322 322 322 322 322 322 322 322 323 323 322 322 322 321 323 324 323 324 325 324 324 323 323 324 324 324 323 316 312 314 318 321 324 323 322 324 324 322 322 323 320 315 310 311 314 315 315 316 317 315 320 337 347 345 348 351 349 350 348 347 350 355 359 357 356 358 358
324 325 323 321 321 323 325 326 325 323 321 322 322 320 322 324 323 323 323 323 323 322 322 323 322 323 324 323 323 323 322 321 322 323 323 324 325 324 325 324 323 324 324 323 323 324 325 323 316 313 318 322 323 324 324 325 323 322 322 325 325 322 319 317 317 318 317 315 316 317 314 320 339 352 348 349 351 351 352 351 350 351 354 360 361 359 360 358
322 323 322 323 324 323 325 328 328 326 325 326 326 325 326 325 324 325 325 324 325 323 323 324 323 323 324 323 324 324 322 320 321 323 324 324 324 324 323 323 323 324 323 325 327 323 321 322 317 313 314 316 318 319 320 321 321 320 322 325 326 325 324 324 322 322 319 315 316 317 314 317 336 353 353 351 350 349 349 352 353 353 352 358 362 361 360 359
322 324 324 324 325 325 325 327 328 329 329 329 329 328 327 326 325 325 325 325 325 324 324 325 324 324 324 324 324 324 324 321 321 324 323 322 323 322 321 322 324 321 322 336 341 326 319 324 320 313 312 312 312 313 314 317 319 320 322 324 325 325 324 321 319 317 316 317 317 315 313 319 336 351 351 351 349 347 351 352 353 355 355 356 361 361 360 359
324 328 327 325 325 324 325 325 325 328 329 329 329 328 327 327 326 325 325 325 325 325 325 325 324 325 324 325 324 324 325 323 322 323 323 322 323 321 321 322 321 323 333 343 340 326 323 328 326 319 315 313 314 317 322 322 318 316 319 323 323 325 326 323 317 314 316 319 317 317 318 319 326 342 350 351 349 347 352 353 352 355 357 357 361 360 360 361
324 327 326 325 327 326 326 326 325 326 327 327 328 328 327 327 327 325 325 325 325 325 325 324 325 326 325 326 326 325 325 326 325 325 323 323 323 323 323 320 319 332 342 337 327 326 325 323 325 325 321 320 323 325 327 325 319 316 318 320 322 325 326 321 316 317 321 317 313 321 326 319 321 334 342 345 348 347 348 351 352 354 356 357 361 361 361 362
323 325 322 321 325 327 326 325 325 325 325 325 326 327 327 327 328 327 326 326 325 326 325 325 326 327 328 328 327 326 326 326 324 325 324 323 324 324 325 322 322 332 336 327 321 328 325 318 322 324 321 323 326 326 326 324 322 322 321 320 322 323 323 320 318 322 324 317 314 322 327 323 325 330 333 338 344 343 345 350 353 355 356 358 360 361 361 361
319 321 320 319 322 324 324 323 324 324 325 326 327 328 327 327 328 327 326 326 326 326 326 327 328 327 328 328 327 328 330 326 325 327 328 327 327 327 325 324 324 328 330 327 329 330 324 321 326 325 320 322 325 325 326 324 322 322 322 323 324 324 323 322 323 326 326 322 322 327 327 327 331 335 336 337 338 340 347 353 354 355 357 357 359 359 359 360
316 317 318 319 321 323 323 323 323 324 325 326 327 327 327 327 327 326 325 326 328 328 326 327 328 327 327 328 328 329 331 329 329 332 332 331 330 330 328 326 327 327 328 331 334 331 324 324 330 326 318 318 322 325 325 323 321 320 320 323 324 323 323 323 323 326 325 323 328 332 327 327 336 346 348 349 348 348 350 351 354 355 356 356 356 357 358 359
314 314 314 317 323 323 322 322 322 324 325 325 326 327 326 327 326 325 325 325 326 327 326 326 327 327 328 329 329 329 329 328 330 330 330 331 330 330 330 329 330 329 328 330 332 330 327 326 330 326 315 313 320 323 321 322 322 318 317 321 322 321 322 322 324 326 324 322 327 327 320 323 338 347 350 352 352 349 347 347 352 355 355 356 356 356 357 356
313 314 313 316 322 322 321 322 321 323 325 325 325 325 324 325 325 324 326 327 325 325 325 325 326 327 329 331 330 328 326 326 328 328 328 328 328 327 328 328 328 329 330 330 330 330 330 326 324 322 313 312 319 321 320 320 316 313 316 322 324 323 324 324 326 329 329 327 325 322 322 331 344 345 345 350 351 347 344 346 350 355 356 356 355 355 353 352
Wind_Speed
14 14 13 13 13 13 13 13 13 13 14 14 14 14 15 15 14 14 12 10 8 6 6 6 7 7 6 6 5 4 4 3 4 7 10 9 9 8 9 14 17 18 16 13 13 11 10 8 5 5 4 3 2 0 1 1 2 3 3 3 1 3 3 3 4 3 4 6 6 6 5 4 7 6 4 5 5 8 7 7 7 6 6 10 17 21 21 20
14 15 15 15 14 14 14 13 13 13 13 14 14 15 15 14 14 13 12 10 9 7 5 5 6 6 5 4 4 4 5 4 7 12 15 11 7 11 13 16 18 19 17 14 13 10 7 5 5 5 4 2 1 1 1 2 2 2 3 2 1 4 4 3 4 4 3 5 6 7 5 4 7 7 6 5 7 8 7 8 8 10 12 14 19 21 20 19
15 16 16 15 15 15 14 14 14 13 14 14 14 15 15 14 14 13 11 10 8 7 5 5 5 5 4 4 4 5 5 5 9 8 10 10 11 13 15 17 18 19 17 13 11 8 3 2 4 4 4 1 2 1 1 2 2 1 3 1 4 4 4 4 3 4 4 4 4 6 5 4 6 6 6 5 6 6 5 7 8 11 14 16 18 19 20 18
15 16 16 16 16 16 15 15 14 14 14 14 14 14 15 14 14 12 11 9 8 6 5 5 5 5 5 5 5 5 4 7 5 2 5 12 15 16 16 16 18 19 14 9 8 7 3 2 4 4 5 1 3 1 1 1 1 0 2 1 5 1 2 5 3 3 3 2 2 4 5 6 5 4 5 5 4 3 4 6 7 11 16 17 17 18 19 19
16 16 16 16 16 16 16 16 15 15 15 15 15 14 15 14 14 13 11 10 8 6 4 4 5 5 6 5 5 4 5 5 3 6 6 14 17 18 16 14 19 18 12 9 8 7 5 4 4 5 4 1 2 2 3 2 1 1 1 4 4 1 2 5 3 2 2 1 1 3 3 5 4 4 4 5 3 3 3 5 8 12 16 18 18 18 18 18
16 16 16 16 16 16 16 16 16 16 16 15 15 15 15 14 14 13 11 10 8 6 4 4 5 5 6 6 5 2 6 2 4 3 4 14 17 18 16 15 20 17 11 10 8 8 6 5 4 3 3 2 4 3 4 3 1 1 2 4 3 1 3 4 4 2 1 1 2 2 1 1 3 4 4 4 1 4 3 6 9 12 16 18 19 17 17 16
16 16 16 17 16 16 16 16 16 16 16 16 16 16 15 14 14 13 12 11 9 7 5 4 4 5 7 6 4 3 7 2 4 0 4 15 19 18 17 19 21 16 12 11 9 7 5 4 3 3 3 3 5 5 4 2 1 1 2 4 3 3 4 3 4 3 2 2 2 1 0 1 3 2 4 5 3 1 4 7 10 13 16 18 17 16 15 15
17 17 17 17 17 17 17 17 17 17 17 17 17 17 16 15 14 13 12 11 9 7 6 5 4 4 7 4 4 5 7 1 4 1 7 18 19 19 19 20 19 15 13 12 8 6 4 3 2 4 2 4 4 3 4 1 2 3 2 3 3 4 3 2 3 3 3 2 2 2 1 2 1 1 3 7 7 6 6 8 11 14 16 15 15 15 14 14
17 17 17 17 17 17 17 17 17 18 17 17 17 17 17 15 13 12 12 12 9 7 6 5 4 3 5 3 6 6 3 4 2 3 11 19 20 21 21 18 18 15 13 10 7 6 4 2 3 4 4 4 4 4 3 0 2 4 2 3 3 5 4 3 3 3 3 2 2 3 3 3 1 2 2 5 6 7 8 9 12 13 15 14 13 14 13 13
17 18 17 18 18 18 18 18 18 18 18 18 18 18 17 15 13 12 12 12 10 8 6 5 3 2 3 4 7 6 3 6 2 7 14 19 20 22 19 16 18 15 11 9 8 7 3 2 3 4 4 2 4 4 3 2 3 3 3 5 4 4 4 4 4 4 4 3 2 4 3 3 2 3 2 3 5 8 9 10 12 12 14 13 12 12 12 12
18 18 18 18 18 18 18 18 19 19 19 20 20 19 17 15 13 12 12 12 11 8 5 5 3 2 4 6 8 4 5 6 4 11 16 18 21 22 17 15 17 14 10 8 8 7 3 1 2 4 2 3 3 2 3 3 2 2 3 5 6 4 3 4 5 5 5 4 3 3 3 4 4 4 2 5 6 9 10 11 12 12 12 12 12 12 11 11
19 19 19 19 19 19 19 19 19 19 20 20 21 19 16 15 13 12 12 12 10 7 5 4 4 1 4 8 7 2 3 3 3 11 16 17 17 16 13 14 14 11 8 7 7 6 4 1 4 5 3 5 4 1 3 2 0 2 3 3 7 7 3 4 5 4 5 3 4 4 4 6 9 7 4 6 7 9 10 11 12 11 11 11 12 11 10 11
20 20 20 20 20 20 20 20 20 20 20 21 21 18 15 14 13 11 10 10 8 6 5 5 4 1 5 6 2 1 2 1 3 11 15 15 13 9 8 10 10 8 5 5 2 4 5 3 5 5 4 6 3 2 0 2 2 2 3 4 4 6 4 5 5 4 5 3 4 5 3 3 8 8 6 7 8 10 10 10 11 11 10 10 11 10 10 11
20 21 21 21 21 21 22 21 21 20 20 21 19 17 15 13 11 9 7 8 7 6 6 6 4 2 6 4 2 3 4 1 5 11 14 14 12 8 8 8 7 6 3 1 1 2 4 4 6 5 3 5 2 1 4 4 2 2 2 3 2 2 4 6 5 5 5 4 4 7 3 2 6 8 8 8 9 10 10 10 11 10 10 10 10 11 10 12
21 21 22 22 22 23 22 22 22 21 20 20 17 14 13 10 8 5 3 5 6 7 7 6 4 3 6 5 2 4 4 3 8 12 14 14 12 9 9 10 8 6 3 2 2 2 3 5 6 5 1 2 3 4 5 3 2 2 3 2 1 2 5 6 4 5 4 3 6 6 3 2 6 8 8 8 9 10 9 10 11 11 11 11 10 11 10 11
22 22 22 23 23 23 23 23 23 22 21 18 13 11 9 7 6 2 4 7 8 9 7 3 4 4 6 3 4 2 5 7 9 12 13 13 10 8 11 11 8 7 5 3 2 2 3 4 5 3 2 3 5 4 3 2 2 1 2 1 3 3 2 4 4 5 3 3 7 7 4 2 5 8 9 9 10 11 9 10 12 11 12 11 10 10 10 10
22 22 23 23 24 24 23 23 23 22 22 15 9 7 5 5 6 6 7 9 9 9 4 1 2 5 5 1 3 5 8 8 8 12 13 10 7 8 12 11 8 9 7 5 4 4 4 5 3 3 4 5 4 4 4 3 2 2 1 0 1 3 3 1 3 5 5 5 6 8 6 2 4 8 9 10 10 11 10 10 12 11 10 10 10 10 10 10
23 23 24 24 24 24 24 24 23 23 21 12 5 3 3 4 7 7 7 9 8 6 2 2 3 5 4 6 5 4 8 10 10 12 12 9 7 9 10 8 8 10 8 6 6 7 6 5 4 4 5 5 4 5 4 2 1 1 2 2 1 2 2 3 3 4 6 6 6 6 7 4 4 7 8 10 10 10 9 9 10 11 10 10 10 10 11 11
24 25 24 25 25 25 25 24 23 24 19 7 1 2 3 3 5 4 5 6 5 3 2 4 8 4 1 7 6 4 6 11 12 12 13 11 9 9 8 8 9 10 8 7 7 8 6 5 5 6 6 6 5 5 5 3 5 5 5 5 5 5 2 4 4 2 4 6 6 7 6 4 5 7 8 10 11 10 10 9 8 9 10 10 10 10 10 11
25 26 25 26 25 25 26 24 24 23 13 2 2 2 2 2 3 4 6 8 10 9 5 4 11 6 2 5 6 7 8 11 10 11 14 14 12 11 8 9 9 9 8 7 7 7 5 7 8 8 7 5 3 4 6 6 5 6 6 5 6 5 2 3 2 2 2 5 5 5 6 4 4 6 8 10 12 12 12 12 11 10 10 10 11 11 11 11
27 27 26 27 26 26 25 24 25 18 5 2 1 5 4 3 3 0 2 8 14 15 13 8 10 10 3 3 4 6 7 9 9 10 14 15 13 11 9 9 9 8 9 9 4 4 5 8 10 10 5 2 2 4 5 5 5 6 6 6 5 4 2 3 2 1 2 5 2 1 5 6 5 6 8 10 12 12 13 14 13 13 13 11 12 12 12 11
28 27 28 28 26 26 25 26 25 11 1 2 3 8 5 4 3 3 3 7 11 15 16 14 12 12 8 5 3 3 6 10 11 11 12 14 13 11 9 10 11 9 9 8 4 5 7 10 12 8 1 1 4 4 5 6 7 7 5 6 4 2 1 3 3 2 3 4 1 1 5 5 4 6 7 10 11 10 11 13 13 13 13 12 12 12 12 12
29 29 29 28 28 27 25 27 22 6 4 3 6 8 3 2 3 3 4 7 7 10 12 13 13 12 12 11 8 7 8 11 13 12 13 14 13 11 9 10 12 11 10 10 9 9 8 8 10 6 3 4 5 4 6 6 6 6 5 6 4 2 2 0 3 3 3 4 4 5 6 5 4 6 8 10 11 9 10 12 12 12 13 13 13 12 12 13
29 30 29 29 29 26 25 26 14 4 4 7 10 8 2 0 4 4 5 6 6 6 7 9 10 11 12 8 9 13 11 9 11 13 16 15 12 11 11 10 12 12 10 12 13 13 9 1 1 4 6 7 7 5 7 7 6 6 7 7 6 5 4 2 2 3 3 5 5 6 6 3 3 5 7 8 10 10 10 11 12 12 13 13 13 13 12 13
29 30 30 31 29 26 25 18 3 5 6 10 8 6 4 2 3 4 5 6 6 4 4 6 6 8 9 6 9 13 10 9 10 11 17 17 13 11 10 8 9 11 12 14 13 13 11 5 6 5 6 7 9 7 7 6 6 6 6 4 6 7 5 1 3 3 3 3 3 5 5 1 1 3 4 6 9 11 11 12 13 13 13 13 13 13 13 13
29 31 31 31 30 28 20 6 5 4 11 7 3 6 4 2 2 3 4 4 5 3 6 6 5 8 10 9 11 11 9 11 11 10 16 17 14 10 9 7 7 10 11 12 9 8 9 6 7 7 5 7 8 8 7 6 7 5 1 2 4 7 5 2 4 4 3 1 2 5 5 2 1 2 3 5 7 10 11 13 14 13 13 13 13 13 13 13
29 30 32 30 30 27 14 4 5 8 7 1 5 6 2 3 2 4 3 5 4 3 5 3 2 6 9 10 15 11 5 8 10 11 14 15 13 10 9 8 7 8 6 6 7 7 8 9 8 10 10 8 7 7 6 6 8 2 5 4 4 5 4 2 4 4 2 1 4 7 5 4 3 1 3 4 6 7 10 13 13 13 14 15 14 14 14 13
29 30 32 30 29 24 12 8 10 6 2 3 6 7 3 3 3 4 4 5 2 2 3 3 2 4 4 9 18 12 3 9 11 12 15 16 13 9 11 11 9 10 9 8 8 6 10 14 12 13 12 9 9 7 2 5 9 1 6 4 3 3 3 2 4 4 2 4 5 6 4 5 4 2 4 4 5 6 8 10 12 14 14 15 15 15 15 14
30 30 31 30 28 21 10 8 8 4 3 5 8 6 3 3 4 4 5 4 2 2 2 3 4 6 6 9 16 13 5 6 5 8 15 15 11 7 7 8 9 11 11 12 11 4 6 8 9 12 12 9 11 8 3 6 6 3 3 2 2 2 2 2 5 3 1 6 4 2 4 5 4 3 4 3 3 3 3 4 7 11 13 14 14 15 15 14
30 29 29 30 23 12 5 7 10 7 7 8 6 4 4 5 4 5 6 3 2 2 3 3 4 7 10 11 13 14 10 5 3 9 13 12 11 8 4 3 7 8 8 11 13 7 2 1 2 8 11 10 9 4 2 5 4 1 3 5 4 3 2 3 3 3 4 6 2 1 4 6 5 2 1 1 1 2 1 2 3 5 10 12 13 13 14 13
29 28 27 26 16 6 4 3 4 8 10 6 3 4 6 5 4 6 5 1 1 2 4 5 5 7 12 13 11 13 12 6 8 12 11 10 11 11 6 4 6 6 7 8 10 11 8 6 4 6 9 9 7 5 3 3 4 4 6 5 4 3 3 4 3 3 7 4 1 0 3 5 5 3 2 1 0 2 2 1 1 1 5 8 11 12 13 13
28 26 24 21 12 7 7 2 1 7 11 5 2 6 6 5 6 7 3 1 1 2 2 4 6 7 12 13 11 14 13 7 10 13 12 11 11 10 10 9 7 7 8 7 9 10 10 10 8 8 8 8 9 8 5 5 6 7 6 6 6 4 3 5 4 4 6 2 2 1 2 4 5 4 4 2 1 3 3 4 4 2 1 4 8 10 11 12
27 26 21 12 5 4 6 6 5 8 7 2 4 6 6 6 6 5 5 3 1 2 2 1 4 7 10 11 11 14 14 9 11 13 12 13 11 11 14 12 10 9 6 5 8 8 7 10 12 11 8 9 11 9 7 7 7 8 7 7 7 5 4 6 4 4 5 2 3 2 2 4 5 3 2 1 2 1 3 3 3 1 1 1 4 7 9 11
27 22 12 5 3 3 4 7 10 11 7 5 6 7 8 9 5 2 6 5 2 2 1 1 2 6 9 10 9 13 13 9 11 11 11 13 11 10 13 13 13 11 5 4 6 6 7 7 12 14 9 11 14 11 8 7 7 9 8 7 6 5 5 5 3 3 3 1 3 3 3 4 2 1 3 3 2 0 1 0 0 0 1 1 2 5 7 10
24 14 4 3 4 6 7 6 8 11 8 6 7 7 9 9 5 3 4 1 1 2 2 1 4 7 8 9 9 13 12 8 11 11 9 11 11 10 11 11 14 12 7 6 4 5 8 4 9 15 9 11 16 14 11 8 6 7 6 7 7 5 5 4 4 5 4 3 3 4 3 3 3 1 4 4 3 3 2 2 2 1 1 1 2 4 6 8
19 7 1 2 3 6 8 5 8 10 7 7 8 8 8 6 3 1 0 2 2 3 4 4 6 7 7 7 8 12 12 8 11 11 9 11 11 11 12 10 13 15 11 7 3 4 7 3 10 14 9 11 13 12 14 12 5 5 6 8 5 4 6 6 3 3 5 7 3 2 5 4 2 2 3 2 4 6 5 4 3 0 1 1 1 3 5 6
16 5 1 3 4 6 4 3 8 7 6 7 8 7 6 4 1 1 2 2 2 2 5 6 5 5 7 7 7 12 13 9 10 10 8 10 10 11 13 10 12 17 14 10 5 3 5 3 10 14 12 11 7 6 11 11 6 4 5 6 4 3 6 6 4 3 5 7 3 2 5 3 1 1 3 1 5 6 6 2 1 1 1 1 1 2 4 5
11 4 1 6 7 9 8 5 3 6 6 6 9 8 5 3 1 1 1 2 2 3 5 5 2 2 5 5 6 12 13 10 10 10 8 9 8 10 14 11 10 15 17 14 8 3 4 4 7 11 10 9 7 6 8 8 9 8 4 2 4 5 6 5 5 5 5 6 3 2 3 2 2 2 3 2 6 5 6 3 1 1 2 2 3 5 6 6
7 4 2 4 5 8 9 4 3 6 6 6 9 7 4 5 2 1 1 2 3 4 4 4 1 2 4 3 2 7 12 12 10 10 9 8 7 9 12 11 11 15 17 15 9 4 4 6 3 7 6 8 8 9 9 8 10 9 6 4 5 5 3 3 4 5 4 4 4 2 2 2 1 2 0 4 5 5 6 5 2 2 4 4 4 5 7 7
5 3 2 4 4 10 10 4 5 6 6 6 6 3 2 4 3 1 2 2 3 4 3 3 2 3 4 3 3 2 7 11 11 10 9 9 8 7 9 10 10 13 16 16 12 7 5 6 3 5 7 7 8 9 11 10 10 9 9 9 8 5 3 3 4 5 5 4 3 2 3 2 2 2 3 2 5 5 5 5 4 3 5 5 5 5 6 7
5 2 3 3 5 8 7 4 6 5 6 5 5 4 1 2 4 4 3 3 4 5 5 6 6 6 5 4 4 1 3 7 9 9 8 10 9 6 9 12 9 9 13 14 12 9 6 6 5 4 6 7 7 9 10 9 6 9 10 9 10 8 5 6 6 5 4 4 4 3 3 2 3 1 1 3 5 5 6 5 5 5 5 5 5 5 6 7
5 2 3 3 6 6 5 6 4 3 6 3 2 3 1 2 5 5 4 4 6 6 6 7 8 8 8 7 6 4 4 6 7 9 8 9 11 8 9 13 11 10 10 10 12 11 7 6 6 6 6 4 6 7 4 7 7 9 9 9 10 8 7 8 6 4 4 4 4 4 3 2 4 2 2 4 5 5 5 4 5 6 5 5 6 6 6 6
3 3 3 3 5 4 5 6 3 4 5 1 2 3 2 3 5 4 4 5 5 5 6 6 7 9 9 8 8 7 6 6 6 9 8 8 12 9 8 11 12 12 10 8 10 10 6 6 7 7 6 3 4 5 4 5 7 9 10 9 8 7 8 6 3 2 3 4 3 3 3 2 5 4 3 4 5 4 4 4 5 6 6 6 6 6 6 5
3 3 1 3 3 4 5 4 3 4 4 1 2 4 4 4 5 5 5 4 3 4 5 6 6 8 8 7 7 8 7 5 6 8 8 8 7 4 6 11 12 12 10 6 6 8 6 6 7 7 7 6 6 7 7 7 8 8 9 10 11 10 8 4 1 2 3 5 4 3 3 2 4 4 4 6 7 7 7 6 4 5 6 6 6 6 6 6
3 2 1 1 0 3 3 3 3 3 1 2 4 5 4 5 4 4 5 5 3 3 5 5 5 6 7 7 7 8 8 7 6 4 5 7 4 2 5 12 14 13 9 2 3 7 7 6 7 7 8 8 8 7 7 8 8 7 9 12 13 12 10 6 4 4 5 5 5 4 3 2 5 4 6 8 9 8 8 8 6 5 6 7 6 6 7 7
3 1 0 0 1 1 1 2 3 4 2 3 4 3 5 6 3 2 4 5 3 3 5 5 5 6 8 8 9 10 10 10 9 5 5 7 5 3 4 10 15 12 6 4 4 7 5 5 9 10 9 8 6 4 4 7 10 10 10 12 13 13 12 9 5 5 5 4 4 5 4 2 6 7 7 8 10 10 9 9 8 6 6 7 7 6 6 6
3 2 4 3 1 1 1 1 2 3 2 2 2 1 4 6 3 2 3 3 1 3 6 4 3 4 5 7 8 9 11 11 10 9 9 9 5 2 4 7 12 9 7 5 8 7 4 6 11 14 14 13 9 2 4 8 11 12 12 14 14 13 13 11 8 7 6 5 4 5 6 6 4 7 7 7 9 10 10 9 8 7 7 7 7 7 7 7
3 1 3 3 3 2 1 2 5 4 3 3 2 3 5 6 4 2 1 2 2 3 4 4 3 3 4 4 6 7 9 10 11 11 11 9 7 4 5 6 9 9 7 9 10 6 6 8 11 14 15 17 14 5 4 8 9 9 10 12 14 15 14 13 12 10 9 6 4 3 6 9 6 3 7 9 10 9 10 9 8 8 8 7 7 8 8 7
4 2 3 3 4 3 4 5 6 6 5 2 2 3 5 5 4 2 3 4 4 1 3 3 2 6 6 4 6 6 5 5 8 8 5 4 6 6 6 7 8 10 9 10 10 7 7 6 8 11 13 15 13 8 7 9 8 8 10 10 11 14 15 14 13 11 10 9 7 4 7 9 5 2 2 7 9 8 9 9 8 8 9 8 8 8 8 7
4 3 4 5 4 3 4 4 5 6 3 2 3 1 3 5 4 5 4 5 5 1 3 5 7 8 6 3 4 4 2 6 6 5 4 4 4 4 3 2 3 8 11 9 7 7 6 4 5 7 8 11 12 10 9 11 11 10 11 10 11 12 13 13 13 10 10 10 8 7 8 7 3 3 3 5 7 8 9 10 9 8 9 9 8 8 8 7
5 4 5 5 3 3 4 3 3 5 4 3 2 2 2 4 5 8 7 7 7 4 4 8 9 9 5 2 1 3 7 9 10 10 10 8 6 3 2 3 5 2 9 8 6 7 7 4 4 6 7 8 10 12 12 11 11 13 13 12 11 11 12 11 10 9 10 11 9 7 7 5 3 5 5 5 8 9 11 11 10 8 9 9 9 8 8 7
7 4 4 4 3 2 3 3 3 4 2 1 3 4 4 5 6 8 6 4 4 3 3 9 11 9 5 2 3 10 13 13 13 12 11 10 8 7 7 7 9 5 4 5 5 6 6 6 5 7 8 7 8 10 10 10 10 11 12 13 13 12 11 10 10 10 11 11 8 6 5 2 3 6 7 8 10 11 11 10 9 9 9 9 8 8 8 8
Wind_Direction
24 23 22 21 19 16 14 13 12 10 5 1 0 360 1 2 3 4 3 360 356 347 330 317 305 310 315 317 319 312 316 287 252 227 228 239 219 207 188 175 172 163 159 164 167 166 175 190 190 193 209 212 229 161 163 223 258 255 250 238 178 103 104 81 77 79 103 116 110 126 163 160 141 150 154 165 143 122 126 118 111 100 93 107 117 129 137 141
23 21 20 20 19 17 15 14 12 10 4 0 357 355 355 355 357 1 1 358 355 354 341 325 315 325 327 323 329 326 329 283 248 244 239 239 205 189 179 174 173 163 161 170 175 178 184 187 188 203 228 222 154 175 188 176 230 275 285 236 67 57 83 69 67 81 92 104 109 127 151 166 148 150 167 162 134 133 125 123 127 112 111 120 127 135 141 147
22 21 19 18 18 17 16 14 11 8 5 0 356 352 348 347 349 352 356 354 351 356 352 334 335 343 339 338 337 337 338 278 248 247 235 215 186 175 174 178 177 170 171 178 184 189 199 196 196 220 254 244 101 182 181 170 221 313 287 219 84 64 94 94 80 82 76 91 111 119 134 152 149 158 169 154 134 141 124 124 139 129 130 136 138 142 147 154
20 19 18 17 16 15 14 12 9 6 3 359 356 349 343 341 340 341 346 348 342 344 350 343 347 352 347 347 340 343 317 262 233 113 149 174 174 172 173 179 181 178 181 189 191 197 223 215 202 242 270 268 106 168 98 101 245 303 276 32 67 42 110 96 97 93 74 59 93 118 140 137 142 189 173 157 137 133 139 131 137 141 143 146 147 150 155 159
17 15 14 14 13 13 11 8 6 3 0 357 354 348 341 335 331 331 333 338 335 326 332 335 340 349 349 345 344 344 283 254 128 83 137 164 168 172 173 176 178 177 183 190 188 197 212 222 225 245 271 352 96 151 84 69 319 17 16 51 55 284 82 90 107 106 76 35 143 145 141 115 143 211 196 184 138 83 123 126 126 142 149 152 153 155 159 163
13 12 10 10 10 10 8 5 2 359 356 353 350 345 340 330 324 322 320 328 328 314 306 311 331 344 347 342 350 325 263 286 90 74 157 165 169 172 172 170 171 173 184 183 182 197 206 226 241 264 287 23 38 43 69 91 143 53 69 69 55 25 71 97 125 127 154 189 156 119 72 107 182 199 198 200 78 57 86 112 123 138 151 153 154 158 162 165
10 9 7 6 5 5 4 1 357 355 352 349 346 341 336 329 319 312 310 315 318 313 292 291 315 332 349 345 343 256 245 315 70 276 183 171 171 171 170 166 168 172 184 184 185 198 206 234 269 319 308 50 36 36 63 100 137 43 51 70 74 85 84 98 131 143 171 162 124 92 47 196 204 192 171 172 196 192 111 117 129 135 148 154 156 163 163 166
9 7 4 3 1 1 360 357 354 351 349 346 342 337 332 326 315 304 300 301 306 307 282 279 295 323 353 339 297 252 229 23 55 209 178 169 169 169 163 164 173 177 187 191 193 205 219 250 316 323 324 49 17 23 65 142 136 72 60 92 111 124 107 97 122 138 157 148 150 195 181 146 178 272 175 174 189 178 130 132 137 138 148 156 162 165 164 167
9 6 3 1 359 358 356 354 351 348 346 342 338 334 328 322 312 297 290 290 292 296 281 267 268 311 351 313 276 256 201 55 36 181 164 165 166 167 161 165 178 182 192 195 200 216 233 283 13 337 335 29 2 22 52 257 70 59 99 131 135 141 142 154 144 149 168 157 198 204 170 143 165 260 210 183 176 148 139 145 143 147 152 158 165 166 166 167
8 6 3 360 358 356 354 352 349 346 343 340 336 331 325 318 308 294 282 279 280 284 271 251 248 292 321 285 259 237 102 53 113 158 158 164 164 166 169 174 178 186 198 194 201 214 243 339 25 339 305 335 357 36 36 358 40 55 123 124 130 142 149 182 170 163 179 159 208 221 183 150 162 236 208 148 162 154 154 153 152 156 155 159 164 165 169 168
7 5 2 360 358 356 354 351 348 344 341 339 334 329 324 317 307 294 276 268 272 275 257 234 226 252 288 278 255 218 79 55 138 158 163 167 167 173 181 181 179 192 198 194 208 212 227 330 343 301 293 327 333 71 62 26 52 110 145 135 136 143 140 186 180 165 186 173 183 225 212 183 182 226 202 135 162 167 163 157 160 163 157 161 163 163 170 169
4 2 1 359 357 356 354 351 348 344 341 338 334 331 325 317 308 293 274 260 260 261 239 212 203 231 285 265 251 246 50 36 150 166 171 170 173 180 187 184 186 200 206 213 214 204 220 256 288 292 346 331 304 103 70 58 198 157 204 194 145 152 160 187 184 175 203 182 159 203 226 212 201 206 183 153 164 169 167 161 162 165 159 162 162 163 170 170
2 0 359 357 356 355 354 351 348 344 342 338 336 334 327 320 310 293 271 252 245 239 210 188 178 175 273 258 215 240 298 337 164 170 172 173 178 182 180 179 186 204 225 250 215 182 223 237 275 299 337 309 328 53 58 158 198 179 226 274 165 158 159 175 180 184 205 167 163 213 240 204 186 180 167 166 170 169 168 165 167 164 162 166 163 166 170 170
359 358 356 355 354 353 352 350 347 345 343 339 337 336 331 326 313 295 264 235 219 204 179 165 157 173 256 263 108 228 243 137 164 173 173 178 182 181 172 169 180 195 212 261 79 166 220 216 251 274 272 283 348 122 212 182 198 237 239 257 214 132 118 150 173 184 190 153 180 230 260 106 143 157 164 176 176 174 173 170 172 165 165 170 166 170 171 171
356 355 354 353 351 351 350 347 345 345 344 340 337 338 337 338 332 310 227 190 177 167 149 145 164 204 255 243 162 233 229 182 187 181 177 178 179 181 177 175 174 173 170 160 119 137 188 198 232 260 218 229 258 226 225 198 184 263 252 170 79 26 112 135 169 197 201 148 182 227 265 95 136 154 162 176 182 185 184 174 174 171 167 171 171 175 173 173
354 353 351 350 349 348 347 345 342 342 342 338 337 340 344 360 15 41 140 145 146 139 130 146 187 227 274 236 141 194 201 193 190 178 177 182 186 177 164 165 167 168 169 165 168 160 179 212 237 281 265 219 232 238 251 241 179 219 274 82 49 2 78 127 163 191 211 171 185 215 265 31 128 151 157 171 187 194 194 180 178 177 170 171 175 177 177 177
353 351 349 348 347 346 345 343 339 339 339 336 336 346 357 30 66 86 107 123 121 118 132 253 182 223 266 170 152 211 197 184 173 169 174 185 189 157 149 160 169 170 169 165 184 198 198 216 226 233 239 232 239 255 248 225 182 173 271 356 62 355 356 62 135 162 190 214 211 212 241 300 122 148 160 171 189 199 197 189 182 179 176 174 178 180 179 183
352 350 348 346 345 344 344 341 338 337 335 332 337 22 45 69 93 94 106 118 107 107 191 252 201 235 234 191 196 198 180 170 160 165 168 173 174 158 157 167 164 165 177 183 187 198 198 203 227 238 233 224 230 244 235 220 288 297 317 318 335 343 348 17 38 141 185 222 232 217 230 247 168 162 167 168 183 201 202 200 188 179 179 180 186 187 181 186
351 349 347 345 344 343 342 339 337 335 332 333 26 100 97 94 109 134 165 157 158 187 230 181 193 245 69 181 187 108 142 155 149 159 164 164 165 165 163 157 161 173 187 193 185 191 205 208 225 245 240 227 220 232 252 298 318 318 324 316 318 321 330 9 13 123 201 239 239 235 238 236 196 180 178 170 174 193 201 206 199 181 182 190 196 194 185 190
350 348 346 344 343 342 342 337 335 335 331 355 121 192 200 215 203 182 181 203 222 244 292 179 195 245 22 152 157 121 135 153 162 167 165 165 163 166 165 156 170 189 204 212 187 176 217 234 228 238 241 238 237 248 273 300 306 301 301 295 296 300 324 28 31 116 229 257 242 240 250 251 226 194 186 178 176 188 196 199 198 189 190 198 203 200 192 194
348 346 344 343 341 341 341 335 333 333 326 78 169 228 268 299 277 266 181 222 224 237 260 240 223 252 265 126 137 149 160 172 185 171 162 170 173 177 176 174 190 200 210 222 193 153 219 240 237 243 253 283 284 275 276 280 280 279 284 289 286 287 344 65 80 113 212 253 246 240 266 256 231 208 190 184 186 193 196 197 197 195 196 201 206 205 198 197
346 344 342 341 340 340 340 333 331 326 257 26 246 245 295 343 339 350 311 260 234 228 241 242 239 248 242 224 209 215 212 189 180 165 163 176 186 191 181 185 211 212 199 205 199 194 218 238 240 238 254 257 255 271 265 261 269 270 270 275 275 300 11 99 126 149 190 241 294 330 285 265 222 209 194 190 197 200 199 202 200 197 199 202 206 207 203 200
343 342 340 341 338 339 338 331 327 295 210 315 273 261 293 18 355 316 264 283 268 224 224 228 227 228 226 228 217 218 226 196 183 173 169 181 192 200 193 192 217 220 200 202 215 223 222 235 240 220 174 228 234 232 249 257 255 253 262 268 273 328 321 278 129 145 191 244 304 316 293 271 223 203 198 198 202 204 204 207 208 205 205 205 206 207 206 202
341 340 339 339 336 337 337 331 322 218 223 292 275 259 240 336 339 295 256 277 269 216 206 214 219 224 220 209 188 202 219 209 196 174 169 187 194 198 209 206 215 221 214 213 220 233 237 184 160 200 196 226 235 222 236 252 250 240 245 260 283 307 309 335 102 138 194 223 258 286 282 260 219 210 209 194 192 201 202 205 211 211 211 211 210 210 209 207
339 338 337 337 335 336 336 327 269 176 290 291 262 216 195 273 328 279 270 272 248 199 172 186 205 218 200 166 170 192 210 216 211 171 166 192 193 186 209 211 216 221 216 218 220 234 236 142 119 186 191 213 232 233 230 245 261 243 226 249 294 304 311 342 158 183 230 211 211 264 278 238 173 231 214 174 181 197 196 202 211 211 211 213 215 213 209 210
338 337 337 336 334 333 334 326 173 265 300 286 190 161 178 306 313 242 262 270 242 173 151 175 188 175 170 174 173 179 204 212 210 174 167 193 197 191 209 194 208 232 220 216 219 237 235 178 171 209 204 208 230 244 234 239 262 248 125 33 313 300 304 239 203 231 277 315 166 239 274 298 243 244 169 166 194 201 195 205 212 210 209 210 212 213 208 207
336 335 335 334 334 333 333 308 283 289 286 206 151 172 203 322 276 204 245 258 236 153 139 162 189 165 168 174 167 170 191 170 175 176 172 189 190 194 219 191 192 233 220 206 217 225 224 212 208 221 229 228 228 237 218 223 250 252 55 11 310 301 294 241 237 258 296 312 189 207 250 284 272 267 122 169 216 211 204 209 211 209 210 209 210 210 208 205
334 334 334 332 330 327 312 279 288 281 246 146 166 196 245 303 230 201 260 260 201 115 131 123 113 162 174 170 174 184 140 134 167 179 174 187 186 190 220 207 202 213 194 204 221 190 201 222 221 218 228 231 232 241 194 219 249 348 39 339 305 301 272 224 249 264 295 273 228 182 214 265 262 202 150 185 236 233 221 215 211 210 209 209 208 208 208 203
333 332 333 329 325 324 307 258 256 246 213 188 184 202 241 254 222 216 262 263 165 133 124 127 145 169 163 167 188 201 180 166 196 161 161 183 195 208 231 223 220 209 190 211 232 192 175 225 232 222 225 225 230 236 208 238 259 42 43 260 189 211 230 224 254 265 250 261 266 141 205 268 287 229 177 194 250 258 228 203 198 204 207 210 208 206 207 201
331 331 332 328 324 325 305 249 241 230 195 189 194 196 205 211 221 227 232 238 162 124 108 150 166 167 166 168 188 201 199 190 137 141 161 175 188 209 246 249 230 218 198 212 236 246 181 133 241 231 232 231 225 193 152 250 272 93 212 211 184 197 218 236 257 268 247 247 273 98 237 268 295 292 99 99 322 318 250 136 125 175 196 206 208 205 204 200
330 331 330 323 314 285 253 250 242 212 190 187 191 184 198 203 232 243 220 183 280 145 139 169 160 158 178 182 185 192 198 183 142 158 171 169 183 199 201 203 213 219 214 212 228 237 223 206 208 219 227 230 214 160 134 212 219 228 229 214 211 204 209 237 225 240 257 255 91 125 251 263 274 297 348 33 352 271 250 268 6 143 175 192 205 207 204 201
331 331 326 316 301 257 237 258 31 180 174 170 198 199 206 203 223 240 215 107 231 181 143 167 167 174 189 194 191 187 191 184 165 173 177 178 187 194 198 199 187 197 217 211 211 217 218 217 212 206 207 215 217 198 173 185 205 225 225 216 229 214 208 242 225 227 259 257 126 166 243 260 270 284 295 299 266 256 266 285 299 304 144 168 194 205 204 202
335 332 324 316 305 245 237 252 236 186 169 210 233 208 213 221 223 228 226 225 81 55 15 140 176 186 190 199 197 188 192 185 175 186 190 190 194 194 203 208 197 209 232 208 200 201 200 203 205 210 202 203 219 212 183 185 200 217 215 212 230 231 236 247 233 232 252 219 133 136 223 258 270 276 286 349 35 336 297 291 298 313 331 166 189 204 202 201
337 333 324 331 345 300 278 260 229 211 220 245 220 198 212 227 222 208 233 232 67 27 305 114 182 197 196 209 197 182 193 187 175 190 193 192 204 202 200 206 206 220 245 213 209 208 206 197 193 203 200 190 207 223 222 205 192 208 223 230 241 255 265 270 265 254 252 179 140 161 213 260 283 101 113 107 94 85 262 20 38 195 208 230 214 217 208 200
341 345 351 18 355 327 315 282 218 204 215 220 207 203 212 223 225 224 234 237 18 285 254 216 234 220 202 210 203 186 198 200 180 192 201 196 208 207 199 201 201 212 228 220 214 209 229 247 175 187 191 182 196 214 230 237 211 197 216 238 246 258 265 275 294 306 314 284 211 193 226 269 296 178 153 160 176 185 200 195 204 210 138 187 222 216 213 204
346 354 7 13 346 327 317 271 185 184 207 215 209 210 217 229 244 241 315 23 337 308 291 250 227 227 207 194 198 194 204 215 189 192 207 204 211 213 209 203 194 203 217 218 201 190 231 247 155 171 192 197 205 209 210 226 228 169 197 226 232 272 272 265 260 274 284 271 238 201 244 248 253 229 155 176 216 190 188 206 198 58 39 225 223 197 203 201
343 330 357 51 25 3 6 137 155 180 219 224 217 222 228 231 261 33 34 5 310 310 287 249 203 225 226 200 196 191 193 202 190 193 205 202 210 214 213 211 195 201 211 220 232 212 238 233 156 177 204 196 203 225 208 220 233 198 210 206 172 218 263 268 259 232 245 256 246 230 265 274 251 233 87 7 258 193 167 191 169 81 59 146 121 145 174 183
327 293 98 64 39 29 44 81 151 207 223 225 229 238 243 225 164 68 9 344 293 273 270 253 205 239 245 225 201 184 184 191 188 196 206 195 195 200 205 209 199 203 211 219 230 191 225 244 157 179 206 171 162 214 210 206 222 240 267 179 179 227 226 214 243 255 248 257 256 224 268 296 264 234 122 186 249 199 155 154 124 106 93 83 100 126 144 159
290 247 145 77 22 4 9 1 246 223 217 221 229 230 232 233 210 100 326 315 282 268 264 264 248 235 247 265 256 178 186 197 194 198 209 197 180 182 197 205 200 204 208 213 223 191 203 244 172 154 180 161 167 208 213 194 200 231 260 229 222 262 260 203 232 256 262 267 265 233 236 232 216 343 352 180 196 182 151 139 117 82 87 86 94 119 140 150
275 253 126 81 342 341 351 316 230 217 213 225 241 230 202 233 226 206 252 271 272 266 268 282 258 235 251 274 290 220 199 214 213 207 207 192 179 179 190 201 204 204 203 206 217 212 196 230 223 125 143 179 189 201 214 207 188 200 223 223 216 227 256 250 235 247 268 276 262 249 253 231 98 1 300 155 146 151 138 130 126 96 86 88 89 108 138 146
276 259 113 66 328 335 337 246 213 213 218 229 255 246 228 279 267 253 237 233 257 256 261 277 267 263 275 266 252 241 219 230 223 218 214 196 200 209 188 195 205 192 192 201 209 210 196 211 229 169 163 195 185 183 218 237 221 206 207 214 217 211 217 229 222 221 244 263 270 268 249 186 111 153 215 116 120 134 132 128 121 106 96 93 96 109 133 145
275 302 82 27 330 326 290 232 197 226 237 240 278 254 283 307 267 264 253 230 240 240 236 257 261 261 266 260 256 264 258 249 228 222 227 210 215 221 179 185 195 174 175 199 200 200 205 215 229 219 205 187 124 136 222 270 266 244 226 223 224 210 211 229 227 208 212 239 272 283 265 113 104 136 158 134 129 130 139 138 118 111 107 104 107 111 124 142
320 349 61 6 324 303 262 233 191 218 230 245 345 268 262 271 256 260 254 233 235 232 223 238 252 250 252 252 257 259 250 254 247 234 237 229 223 220 178 177 188 182 183 199 189 183 199 220 224 226 228 218 138 154 204 232 237 240 235 237 238 216 214 235 254 219 209 220 227 238 245 135 117 129 141 147 148 148 165 162 134 128 120 114 119 119 127 140
341 320 22 355 315 262 254 252 223 219 211 194 271 248 231 250 263 264 260 244 238 243 242 247 246 242 248 253 257 257 245 238 243 238 242 240 221 203 188 182 185 196 199 194 171 167 183 210 213 217 216 206 198 198 197 197 211 223 214 214 227 227 218 222 240 216 219 224 221 223 234 160 117 126 152 168 170 168 171 170 157 142 132 130 130 131 140 145
309 254 206 20 288 246 265 318 313 268 228 243 256 254 242 234 238 258 280 278 262 271 269 258 256 253 255 258 253 250 245 239 242 251 259 246 204 136 207 199 198 207 204 151 138 172 189 202 200 212 213 199 200 207 198 185 192 211 205 198 212 221 212 200 206 212 216 214 213 235 244 133 121 158 179 174 175 175 169 166 165 153 140 139 140 142 148 152
317 280 342 94 135 287 267 25 317 280 293 285 255 251 254 244 218 215 267 266 241 271 285 274 275 264 247 249 250 241 235 233 236 250 267 254 222 159 179 207 213 206 160 103 164 188 205 212 204 222 238 223 201 173 167 181 186 193 194 192 203 211 208 209 216 216 221 219 206 225 248 193 156 174 186 183 181 178 172 168 168 164 154 146 145 146 149 154
331 339 7 347 301 288 174 100 346 308 331 314 278 288 265 262 268 208 223 236 225 290 290 263 259 271 246 244 252 246 238 229 224 238 253 260 258 171 135 202 216 187 124 152 201 202 218 221 213 223 240 247 241 167 151 196 202 198 194 193 199 205 207 211 215 205 208 224 214 203 235 248 204 162 168 193 199 182 172 174 171 167 162 152 147 148 149 156
6 7 31 346 297 321 330 356 354 328 302 285 284 297 271 267 285 278 231 263 261 308 304 226 194 327 309 274 262 254 245 230 218 227 240 245 250 221 165 181 194 170 160 198 203 202 227 226 217 218 228 242 246 228 192 214 218 214 210 203 199 203 207 212 216 207 200 225 239 194 225 244 242 194 173 184 200 193 170 167 166 159 157 151 150 156 159 164
9 1 38 340 296 326 337 332 323 300 285 282 269 269 274 280 297 328 336 290 248 298 336 282 317 351 324 283 258 249 261 264 230 218 229 252 254 236 194 177 177 173 189 204 192 200 234 231 220 223 229 237 235 221 218 228 225 220 224 219 208 207 210 216 224 218 208 226 236 216 230 235 229 259 181 162 181 182 154 150 156 156 155 155 160 166 166 167
11 2 2 323 292 317 323 312 301 284 264 233 236 254 288 285 314 346 322 284 264 288 9 340 345 347 328 295 245 231 352 346 291 265 319 314 279 250 202 174 161 177 192 200 184 189 218 221 209 223 237 238 227 216 220 230 232 226 222 221 219 218 217 221 231 227 217 227 225 212 235 240 179 106 86 124 145 148 146 154 160 159 160 162 167 169 165 166
20 20 357 316 306 347 317 308 310 283 261 232 252 357 330 283 335 340 304 267 267 280 7 360 348 338 312 250 187 358 355 335 302 294 301 289 283 296 282 330 347 201 189 194 183 184 205 213 194 213 234 230 216 213 214 218 229 233 226 217 215 219 222 222 226 225 222 224 216 208 235 249 170 135 134 147 155 157 161 165 164 163 166 167 170 169 165 165
16 15 1 314 303 4 326 311 297 273 275 19 339 332 314 295 333 334 303 256 244 248 353 351 338 329 299 247 356 348 334 317 301 294 289 275 271 278 272 285 304 292 217 202 194 187 205 218 204 213 232 220 196 205 209 204 215 228 224 214 210 214 220 221 218 220 222 221 216 215 230 230 169 167 169 171 175 176 174 171 167 165 166 170 172 168 166 164